Bishopton, United Kingdom

11:26 AM GMT on February 24, 2017 (GMT +0000)
Glasgow

Weather History for EGPF - August, 2013

Change the Weather History Date:

Sunday, August 18, 2013

  Actual Average Record
Temperature  
Mean Temperature 56 °F -  
Max Temperature 60 °F 62 °F 75 °F (1996)
Min Temperature 53 °F 47 °F 44 °F (2010)
Degree Days  
Heating Degree Days 8    
Growing Degree Days 6 (Base 50)    
Moisture  
Dew Point 50 °F    
Average Humidity 78    
Maximum Humidity 88    
Minimum Humidity 67    
Precipitation  
Precipitation 0.00 in - - ()
Sea Level Pressure  
Sea Level Pressure 29.61 in    
Wind  
Wind Speed 13 mph ()    
Max Wind Speed 20 mph    
Max Gust Speed -    
Visibility 6.2 miles    
Events Rain    
Averages and records for this station are not official NWS values.
T = Trace of Precipitation, MM = Missing Value Source: Averaged Metar Reports

Daily Weather History Graph

Daily Weather History Graph

Search for Another Location

Airport or City:

Trip Planner

Search our weather history database for the weather conditions in past years. The results will help you decide how hot, cold, wet, or windy it might be!

Date:

Astronomy

Aug. 18, 2013 Rise Set
Actual Time 5:55 AM BST 8:46 PM BST
Civil Twilight 5:12 AM BST 9:28 PM BST
Nautical Twilight 4:16 AM BST 10:24 PM BST
Astronomical Twilight 3:00 AM BST 11:38 PM BST
Moon 6:53 PM BST (8/18) 2:30 AM BST (8/18)
Length of Visible Light 16h 16m
Length of Day
14h 51m
Waxing Gibbous, 90% of the Moon is Illuminated
Aug 18
Waxing Gibbous
Aug 21
Full
Aug 28
Last Quarter
Sep 5
New
Sep 12
First Quarter

Hourly Weather History & Observations

Time (BST) Temp. Dew Point Humidity Pressure Visibility Wind Dir Wind Speed Gust Speed Precip Events Conditions
12:20 AM 55.4 °F 50.0 °F 82% 29.47 in 6.2 mi West 12.7 mph - N/A   Mostly Cloudy
12:50 AM 55.4 °F 50.0 °F 82% 29.47 in 6.2 mi WSW 15.0 mph - N/A   Mostly Cloudy
1:20 AM 55.4 °F 50.0 °F 82% 29.47 in 6.2 mi SW 8.1 mph - N/A   Mostly Cloudy
1:50 AM 55.4 °F 50.0 °F 82% 29.47 in 6.2 mi WSW 11.5 mph - N/A   Mostly Cloudy
2:20 AM 55.4 °F 48.2 °F 77% 29.47 in 6.2 mi WSW 16.1 mph - N/A   Scattered Clouds
2:50 AM 55.4 °F 50.0 °F 82% 29.47 in 6.2 mi WSW 17.3 mph - N/A   Mostly Cloudy
3:20 AM 55.4 °F 48.2 °F 77% 29.47 in 6.2 mi WSW 16.1 mph - N/A   Scattered Clouds
3:50 AM 55.4 °F 48.2 °F 77% 29.47 in 6.2 mi WSW 16.1 mph - N/A   Mostly Cloudy
4:20 AM 55.4 °F 48.2 °F 77% 29.47 in 6.2 mi WSW 16.1 mph - N/A   Scattered Clouds
4:50 AM 53.6 °F 48.2 °F 82% 29.47 in 6.2 mi WSW 13.8 mph - N/A   Mostly Cloudy
5:20 AM 53.6 °F 50.0 °F 88% 29.47 in 6.2 mi SW 13.8 mph - N/A   Mostly Cloudy
5:50 AM 53.6 °F 50.0 °F 88% 29.50 in 6.2 mi SW 10.4 mph - N/A   Mostly Cloudy
6:20 AM 53.6 °F 50.0 °F 88% 29.50 in 6.2 mi WSW 9.2 mph - N/A   Mostly Cloudy
6:50 AM 53.6 °F 48.2 °F 82% 29.50 in 6.2 mi WSW 10.4 mph - N/A   Scattered Clouds
7:20 AM 53.6 °F 48.2 °F 82% 29.53 in 6.2 mi WSW 13.8 mph - N/A   Scattered Clouds
7:50 AM 55.4 °F 48.2 °F 77% 29.53 in 6.2 mi WSW 11.5 mph - N/A   Scattered Clouds
8:20 AM 55.4 °F 48.2 °F 77% 29.53 in 6.2 mi WSW 16.1 mph - N/A   Partly Cloudy
8:50 AM 57.2 °F 48.2 °F 72% 29.56 in 6.2 mi WSW 16.1 mph - N/A   Scattered Clouds
9:20 AM 57.2 °F 50.0 °F 77% 29.56 in 6.2 mi WSW 15.0 mph - N/A   Scattered Clouds
9:50 AM 59.0 °F 48.2 °F 67% 29.56 in 6.2 mi West 19.6 mph - N/A   Scattered Clouds
10:20 AM 59.0 °F 50.0 °F 72% 29.59 in 6.2 mi WSW 15.0 mph - N/A   Mostly Cloudy
10:50 AM 57.2 °F 48.2 °F 72% 29.59 in 6.2 mi WSW 19.6 mph - N/A   Scattered Clouds
11:20 AM 59.0 °F 50.0 °F 72% 29.59 in 6.2 mi WSW 19.6 mph - N/A   Scattered Clouds
11:50 AM 59.0 °F 50.0 °F 72% 29.59 in 6.2 mi WSW 18.4 mph - N/A Rain Light Rain
12:20 PM 57.2 °F 51.8 °F 82% 29.59 in 6.2 mi WSW 17.3 mph - N/A   Scattered Clouds
12:50 PM 60.8 °F 50.0 °F 68% 29.62 in 6.2 mi WSW 17.3 mph - N/A   Scattered Clouds
1:20 PM 55.4 °F 51.8 °F 88% 29.65 in 6.2 mi West 16.1 mph - N/A   Mostly Cloudy
1:50 PM 59.0 °F 51.8 °F 77% 29.65 in 6.2 mi West 17.3 mph - N/A   Scattered Clouds
2:20 PM 59.0 °F 50.0 °F 72% 29.65 in 6.2 mi WSW 16.1 mph - N/A   Scattered Clouds
2:50 PM 59.0 °F 50.0 °F 72% 29.65 in 6.2 mi West 15.0 mph - N/A   Scattered Clouds
3:20 PM 57.2 °F 51.8 °F 82% 29.68 in 6.2 mi WSW 16.1 mph - N/A   Scattered Clouds
3:50 PM 60.8 °F 50.0 °F 68% 29.68 in 6.2 mi WSW 18.4 mph - N/A   Scattered Clouds
4:20 PM 60.8 °F 50.0 °F 68% 29.68 in 6.2 mi West 16.1 mph - N/A   Scattered Clouds
4:50 PM 59.0 °F 50.0 °F 72% 29.71 in 6.2 mi West 16.1 mph - N/A   Scattered Clouds
5:20 PM 60.8 °F 50.0 °F 68% 29.71 in 6.2 mi West 18.4 mph - N/A   Scattered Clouds
5:50 PM 59.0 °F 50.0 °F 72% 29.71 in 6.2 mi WSW 12.7 mph - N/A   Scattered Clouds
6:20 PM 59.0 °F 50.0 °F 72% 29.71 in 6.2 mi West 13.8 mph - N/A   Scattered Clouds
6:50 PM 55.4 °F 50.0 °F 82% 29.74 in 6.2 mi West 13.8 mph - N/A   Mostly Cloudy
7:20 PM 57.2 °F 50.0 °F 77% 29.74 in 6.2 mi West 16.1 mph - N/A   Scattered Clouds
7:50 PM 57.2 °F 50.0 °F 77% 29.74 in 6.2 mi West 11.5 mph - N/A   Scattered Clouds
8:20 PM 55.4 °F 50.0 °F 82% 29.74 in 6.2 mi West 10.4 mph - N/A   Scattered Clouds
8:50 PM 55.4 °F 50.0 °F 82% 29.77 in 6.2 mi West 12.7 mph - N/A   Scattered Clouds
9:20 PM 53.6 °F 50.0 °F 88% 29.77 in 6.2 mi WNW 6.9 mph - N/A   Partly Cloudy
9:50 PM 53.6 °F 48.2 °F 82% 29.77 in 6.2 mi West 5.8 mph - N/A   Partly Cloudy
10:20 PM 53.6 °F 50.0 °F 88% 29.77 in - WSW 8.1 mph - N/A   Clear
10:50 PM 53.6 °F 50.0 °F 88% 29.77 in - West 8.1 mph - N/A   Clear
11:20 PM 55.4 °F 50.0 °F 82% 29.80 in - West 9.2 mph - N/A   Clear
11:50 PM 53.6 °F 48.2 °F 82% 29.80 in - West 9.2 mph - N/A   Clear